Content
SEND FEEDBACK

Daily
Averages
Monthly
Summary
United States of America

BLACK HAWK, SOUTH DAKOTA


Home > North America > United States > South Dakota
Elevation: 3352 feet     Latitude: 44 05N     Longitude: 103 16W

WEATHER
 
SELECT A DAY
Number of Records: 204,367;   Date Range: 1/1/95 - 9/21/14
 
SHARE

PRINT THIS DATA

[ ← Previous Day ]
WEATHER ALMANAC - MARCH 6, 2013
[ Next Day → ]
[ °C ]   °F
Weather ElementAverageHighLow
Temperature32 °F47.8 °F (2:55 pm)13.6 °F (1:55 am)
Dewpoint16.8 °F23.9 °F (11:55 pm)9.5 °F (1:55 am)
Humidity57.4 %85 % (5:55 am)30 % (2:55 pm)
Barometer30.05 in30.27 in (1:55 am)29.81 in (11:55 pm)
Wind Speed11.4 mph20.7 mph (2:55 am)
Wind Gust18.4 mph (11:55 am)
Weather ElementAverage
Visibility10 mi
Wind DirectionSE (136.8 °)

Weather ElementTotal
Precipitation---
Heating Degree Days34.3 (Base 65)
Averaged from 25 records on March 6, 2013
WEATHER CONDITIONS BREAKOUT
WIND DIRECTION BREAKOUT
WEATHER BY HOUR - MARCH 6, 2013
[ °C ]   °F
Local TimeTemperatureDewpointHumidityBarometerVisibilityWind DirectionWind SpeedGust SpeedPrecipitationEventsConditions
1:55 AM13.6 °F9.5 °F84 %30.27 in10.0 miSSE (150°)18.4 mphClear
2:55 AM14.9 °F10.0 °F81 %30.22 in10.0 miSSE (160°)20.7 mphClear
3:55 AM14.5 °F10.0 °F82 %30.21 in10.0 miSSE (160°)12.7 mphClear
4:55 AM14.2 °F9.9 °F83 %30.21 in10.0 miSSE (160°)10.4 mphClear
5:55 AM14.0 °F10.2 °F85 %30.22 in10.0 miSSE (150°)9.2 mphScattered Clouds
6:55 AM15.1 °F11.1 °F84 %30.22 in10.0 miCalmClear
7:55 AM17.1 °F12.4 °F82 %30.22 in10.0 miCalmPartly Cloudy
8:55 AM21.6 °F14.9 °F76 %30.19 in10.0 miESE (110°)6.9 mphClear
9:55 AM28.8 °F16.7 °F61 %30.15 in10.0 miSE (140°)9.2 mphClear
10:55 AM32.9 °F17.1 °F52 %30.12 in10.0 miSouth (170°)9.2 mphClear
11:55 AM38.7 °F18.0 °F43 %30.08 in10.0 miSSE (150°)13.8 mph18.4 mphClear
12:55 PM42.8 °F18.7 °F38 %30.03 in10.0 miSSE (150°)13.8 mphClear
12:58 PM42.8 °F19.4 °F39 %30.03 in10.0 miSSE (160°)11.5 mphLight Drizzle
1:07 PM42.8 °F19.4 °F39 %30.02 in10.0 miSE (130°)13.8 mph18.4 mphClear
1:55 PM46.2 °F18.7 °F33 %29.99 in10.0 miSSE (160°)12.7 mph0.00 inClear
2:55 PM47.8 °F17.6 °F30 %29.94 in10.0 miSSE (150°)15.0 mphClear
3:55 PM47.1 °F18.1 °F32 %29.94 in10.0 miSSE (160°)15.0 mphClear
4:55 PM46.4 °F18.9 °F33 %29.91 in10.0 miSSE (160°)10.4 mphClear
5:55 PM42.6 °F18.5 °F38 %29.90 in10.0 miSE (140°)9.2 mphPartly Cloudy
6:55 PM40.1 °F19.9 °F44 %29.91 in10.0 miSouth (180°)4.6 mphClear
7:55 PM36.0 °F20.5 °F53 %29.91 in10.0 miESE (120°)10.4 mphClear
8:55 PM33.4 °F21.0 °F60 %29.91 in10.0 miESE (110°)10.4 mphClear
9:55 PM36.0 °F22.8 °F59 %29.87 in10.0 miSSE (150°)18.4 mphClear
10:55 PM36.1 °F23.7 °F61 %29.85 in10.0 miSSE (150°)16.1 mphClear
11:55 PM35.6 °F23.9 °F62 %29.81 in10.0 miSSE (150°)12.7 mphClear
Hourly data recorded from KRCA, located miles away from Black Hawk, South Dakota







STORIES FROM OUR PARTNERS